When you browse on this site, cookies collect data to enhance your experience and personalize the content and advertising you see.
Visit our Privacy Policy to learn more. By continuing to use the site, you agree to this use of cookies and data.
  • In United Kingdom
  • List of Countries
  • For 7 days
  • Water Temperature
  • Satellite Maps
  • Weather Map
  • Weather Widgets
  • user-avatar
    Login

    Hourly Weather Lankaran

    Today, 23 April, Tuesday

    Time Temperature Precipitation Wind Pressure Humidity
    00:00 -3°C° 0.5 mm 2 mps 631 mmHg 93%
    01:00 -4°C° 0.5 mm 2 mps 632 mmHg 93%
    02:00 -2°C° 0.5 mm 1 mps 632 mmHg 93%
    03:00 -2°C° 0 mm 1 mps 632 mmHg 91%
    04:00 -2°C° 0.5 mm 1 mps 632 mmHg 90%
    05:00 -2°C° 0.5 mm 1 mps 633 mmHg 89%
    06:00 -2°C° 0.5 mm 1 mps 633 mmHg 88%
    07:00 -3°C° 0.5 mm 2 mps 634 mmHg 84%
    08:00 -2°C° 0.5 mm 2 mps 634 mmHg 81%
    09:00 -2°C° 0 mm 2 mps 635 mmHg 77%
    10:00 -1°C° 0.4 mm 2 mps 635 mmHg 76%
    11:00 -1°C° 0.4 mm 2 mps 636 mmHg 75%
    12:00 0°C° 0.4 mm 3 mps 636 mmHg 74%
    13:00 0°C° 0.3 mm 3 mps 636 mmHg 74%
    14:00 +1°C° 0.3 mm 2 mps 636 mmHg 74%
    15:00 +1°C° 0 mm 2 mps 637 mmHg 75%
    16:00 +1°C° 0.1 mm 2 mps 637 mmHg 76%
    17:00 +1°C° 0.1 mm 2 mps 637 mmHg 78%
    18:00 +1°C° 0.1 mm 1 mps 637 mmHg 80%
    19:00 0°C° 0 mm 1 mps 636 mmHg 80%
    20:00 -1°C° 0 mm 1 mps 636 mmHg 81%
    21:00 -2°C° 0 mm 1 mps 636 mmHg 81%
    22:00 -2°C° 0 mm 1 mps 636 mmHg 78%
    23:00 -4°C° 0 mm 2 mps 636 mmHg 75%

    Tomorrow, 24 April, Wednesday

    Time Temperature Precipitation Wind Pressure Humidity
    00:00 -4°C° 0 mm 2 mps 636 mmHg 72%
    01:00 -4°C° 0 mm 2 mps 636 mmHg 70%
    02:00 -4°C° 0 mm 2 mps 636 mmHg 68%
    03:00 -4°C° 0 mm 2 mps 636 mmHg 66%
    04:00 -4°C° 0 mm 2 mps 636 mmHg 64%
    05:00 -3°C° 0 mm 2 mps 637 mmHg 63%
    06:00 -2°C° 0 mm 2 mps 637 mmHg 62%
    07:00 +1°C° 0 mm 1 mps 638 mmHg 60%
    08:00 +3°C° 0 mm 1 mps 639 mmHg 59%
    09:00 +4°C° 0 mm 1 mps 639 mmHg 58%
    10:00 +5°C° 0 mm 1 mps 639 mmHg 58%
    11:00 +5°C° 0 mm 2 mps 639 mmHg 58%
    12:00 +5°C° 0 mm 2 mps 639 mmHg 57%
    13:00 +5°C° 0 mm 2 mps 639 mmHg 57%
    14:00 +6°C° 0 mm 2 mps 639 mmHg 56%
    15:00 +6°C° 0 mm 2 mps 639 mmHg 55%
    16:00 +5°C° 0 mm 2 mps 638 mmHg 59%
    17:00 +5°C° 0 mm 1 mps 638 mmHg 63%
    18:00 +4°C° 0 mm 1 mps 637 mmHg 67%
    19:00 +3°C° 0 mm 1 mps 637 mmHg 68%
    20:00 +2°C° 0 mm 1 mps 637 mmHg 69%
    21:00 +1°C° 0 mm 1 mps 637 mmHg 70%
    22:00 +1°C° 0 mm 1 mps 637 mmHg 67%
    23:00 +1°C° 0 mm 1 mps 636 mmHg 65%

    Day after tomorrow, 25 April, Thursday

    Time Temperature Precipitation Wind Pressure Humidity
    00:00 -1°C° 0 mm 2 mps 636 mmHg 62%
    01:00 -1°C° 0 mm 2 mps 636 mmHg 60%
    02:00 -2°C° 0 mm 2 mps 636 mmHg 57%
    03:00 -2°C° 0 mm 2 mps 636 mmHg 54%
    04:00 -1°C° 0 mm 2 mps 636 mmHg 53%
    05:00 +1°C° 0 mm 2 mps 637 mmHg 52%
    06:00 +1°C° 0 mm 2 mps 637 mmHg 51%
    07:00 +3°C° 0 mm 2 mps 638 mmHg 50%
    08:00 +4°C° 0 mm 2 mps 638 mmHg 48%
    09:00 +6°C° 0 mm 2 mps 639 mmHg 47%
    10:00 +6°C° 0 mm 2 mps 639 mmHg 46%
    11:00 +7°C° 0 mm 2 mps 639 mmHg 45%
    12:00 +7°C° 0 mm 3 mps 639 mmHg 44%
    13:00 +7°C° 0 mm 3 mps 639 mmHg 44%
    14:00 +7°C° 0 mm 3 mps 638 mmHg 43%
    15:00 +7°C° 0 mm 3 mps 638 mmHg 43%
    16:00 +6°C° 0 mm 2 mps 638 mmHg 47%
    17:00 +5°C° 0 mm 2 mps 637 mmHg 51%
    18:00 +5°C° 0 mm 1 mps 637 mmHg 55%
    19:00 +4°C° 0 mm 1 mps 637 mmHg 55%
    20:00 +2°C° 0 mm 1 mps 637 mmHg 56%
    21:00 +1°C° 0 mm 1 mps 637 mmHg 57%
    22:00 +1°C° 0 mm 1 mps 637 mmHg 56%
    23:00 +1°C° 0 mm 1 mps 637 mmHg 54%

    26 April, Friday

    Time Temperature Precipitation Wind Pressure Humidity
    00:00 +1°C° 0 mm 1 mps 637 mmHg 53%
    01:00 -1°C° 0 mm 2 mps 636 mmHg 54%
    02:00 -1°C° 0 mm 2 mps 636 mmHg 54%
    03:00 -1°C° 0 mm 2 mps 636 mmHg 54%
    04:00 -1°C° 0 mm 2 mps 636 mmHg 56%
    05:00 +1°C° 0 mm 2 mps 637 mmHg 58%
    06:00 +1°C° 0 mm 2 mps 637 mmHg 59%
    07:00 +3°C° 0 mm 2 mps 638 mmHg 53%
    08:00 +5°C° 0 mm 2 mps 638 mmHg 46%
    09:00 +6°C° 0 mm 2 mps 639 mmHg 39%
    10:00 +7°C° 0 mm 2 mps 639 mmHg 38%
    11:00 +8°C° 0 mm 3 mps 639 mmHg 37%
    12:00 +9°C° 0 mm 3 mps 639 mmHg 35%
    13:00 +9°C° 0 mm 3 mps 638 mmHg 36%
    14:00 +8°C° 0 mm 3 mps 638 mmHg 36%
    15:00 +8°C° 0 mm 3 mps 638 mmHg 36%
    16:00 +7°C° 0 mm 2 mps 637 mmHg 42%
    17:00 +6°C° 0 mm 2 mps 637 mmHg 48%
    18:00 +4°C° 0 mm 2 mps 636 mmHg 53%
    19:00 +4°C° 0 mm 1 mps 636 mmHg 54%
    20:00 +3°C° 0 mm 1 mps 636 mmHg 55%
    21:00 +2°C° 0 mm 1 mps 636 mmHg 56%
    22:00 +2°C° 0 mm 1 mps 636 mmHg 55%
    23:00 +1°C° 0 mm 2 mps 636 mmHg 54%

    27 April, Saturday

    Time Temperature Precipitation Wind Pressure Humidity
    00:00 +1°C° 0 mm 2 mps 635 mmHg 53%
    01:00 +1°C° 0 mm 2 mps 635 mmHg 55%
    02:00 +1°C° 0 mm 2 mps 635 mmHg 56%
    03:00 -1°C° 0 mm 2 mps 635 mmHg 58%
    04:00 +2°C° 0 mm 1 mps 635 mmHg 59%
    05:00 +3°C° 0 mm 1 mps 636 mmHg 60%
    06:00 +3°C° 0 mm 1 mps 636 mmHg 61%
    07:00 +5°C° 0 mm 1 mps 637 mmHg 53%
    08:00 +6°C° 0 mm 2 mps 637 mmHg 45%
    09:00 +8°C° 0 mm 2 mps 638 mmHg 38%
    10:00 +8°C° 0 mm 2 mps 638 mmHg 38%
    11:00 +9°C° 0 mm 2 mps 638 mmHg 39%
    12:00 +10°C° 0 mm 3 mps 638 mmHg 39%
    13:00 +10°C° 0 mm 3 mps 638 mmHg 43%
    14:00 +10°C° 0 mm 3 mps 637 mmHg 46%
    15:00 +10°C° 0 mm 3 mps 637 mmHg 49%
    16:00 +8°C° 0 mm 2 mps 636 mmHg 57%
    17:00 +7°C° 0 mm 2 mps 636 mmHg 65%
    18:00 +6°C° 0 mm 2 mps 635 mmHg 73%
    19:00 +5°C° 0 mm 2 mps 635 mmHg 75%
    20:00 +4°C° 0 mm 2 mps 635 mmHg 76%
    21:00 +4°C° 0 mm 1 mps 635 mmHg 78%
    22:00 +4°C° 0 mm 1 mps 634 mmHg 73%
    23:00 +3°C° 0 mm 2 mps 634 mmHg 68%

    28 April, Sunday

    Time Temperature Precipitation Wind Pressure Humidity
    00:00 +3°C° 0 mm 2 mps 634 mmHg 63%
    01:00 +3°C° 0 mm 2 mps 633 mmHg 60%
    02:00 +3°C° 0 mm 2 mps 633 mmHg 57%
    03:00 +4°C° 0 mm 1 mps 633 mmHg 54%
    04:00 +5°C° 0 mm 1 mps 633 mmHg 53%
    05:00 +5°C° 0 mm 1 mps 633 mmHg 51%
    06:00 +6°C° 0 mm 1 mps 634 mmHg 50%
    07:00 +8°C° 0 mm 1 mps 634 mmHg 47%
    08:00 +10°C° 0 mm 1 mps 635 mmHg 43%
    09:00 +12°C° 0 mm 1 mps 636 mmHg 40%
    10:00 +13°C° 0 mm 1 mps 636 mmHg 41%
    11:00 +13°C° 0 mm 1 mps 635 mmHg 41%
    12:00 +14°C° 0 mm 1 mps 635 mmHg 42%
    13:00 +14°C° 0 mm 1 mps 635 mmHg 43%
    14:00 +14°C° 0 mm 2 mps 635 mmHg 44%
    15:00 +14°C° 0 mm 2 mps 634 mmHg 45%
    16:00 +13°C° 0 mm 1 mps 634 mmHg 50%
    17:00 +12°C° 0 mm 1 mps 633 mmHg 55%
    18:00 +11°C° 0 mm 1 mps 633 mmHg 60%
    19:00 +10°C° 0 mm 1 mps 633 mmHg 57%
    20:00 +9°C° 0 mm 1 mps 633 mmHg 53%
    21:00 +8°C° 0 mm 2 mps 633 mmHg 49%
    22:00 +8°C° 0 mm 2 mps 633 mmHg 44%
    23:00 +7°C° 0 mm 2 mps 632 mmHg 39%
    Show more